Shenandoah, IA

2:39 PM CDT on April 23, 2018 (GMT -0500)
Shenandoah Municipal

Weather History for KSDA - June, 2015

Change the Weather History Date:

Sunday, June 7, 2015

  Actual Average Record
Temperature  
Mean Temperature 78 °F -  
Max Temperature 86 °F 84 °F 100 °F (1963)
Min Temperature 68 °F 59 °F 43 °F (1983)
Cooling Degree Days 12    
Growing Degree Days 28 (Base 50)    
Moisture  
Dew Point 66 °F    
Average Humidity 67    
Maximum Humidity 83    
Minimum Humidity 41    
Precipitation  
Precipitation 0.00 in - - ()
Sea Level Pressure  
Sea Level Pressure 29.78 in    
Wind  
Wind Speed 12 mph (WNW)    
Max Wind Speed 21 mph    
Max Gust Speed 29 mph    
Visibility 10 miles    
Events      
Averages and records for this station are not official NWS values.
T = Trace of Precipitation, MM = Missing Value Source: NWS Daily Summary

Daily Weather History Graph

Daily Weather History Graph

Search for Another Location

Airport or City:

Astronomy

Jun. 07, 2015 Rise Set
Actual Time 5:50 AM CDT 8:50 PM CDT
Civil Twilight 5:17 AM CDT 9:23 PM CDT
Nautical Twilight 4:35 AM CDT 10:05 PM CDT
Astronomical Twilight 3:46 AM CDT 10:54 PM CDT
Moon 12:07 AM CDT (6/7) 11:05 AM CDT (6/7)
Length of Visible Light 16h 06m
Length of Day
15h 00m
Waning Gibbous, 72% of the Moon is Illuminated
Jun 7
Waning Gibbous
Jun 9
Last Quarter
Jun 16
New
Jun 24
First Quarter
Jul 1
Full

Hourly Weather History & Observations

Time (CDT) Temp. Heat Index Dew Point Humidity Pressure Visibility Wind Dir Wind Speed Gust Speed Precip Events Conditions
12:15 AM 77.0 °F - 71.6 °F 83% 29.81 in 10.0 mi South 16.1 mph - N/A   Clear
12:35 AM 77.0 °F - 71.6 °F 83% 29.80 in 10.0 mi South 17.3 mph - N/A   Clear
12:55 AM 77.0 °F - 71.6 °F 83% 29.78 in 10.0 mi South 18.4 mph 24.2 mph N/A   Clear
1:15 AM 77.0 °F - 71.6 °F 83% 29.78 in 10.0 mi South 20.7 mph - N/A   Clear
1:35 AM 77.0 °F - 71.6 °F 83% 29.77 in 10.0 mi South 17.3 mph - N/A   Partly Cloudy
1:55 AM 77.0 °F - 71.6 °F 83% 29.77 in 10.0 mi South 16.1 mph 21.9 mph N/A   Scattered Clouds
2:15 AM 77.0 °F - 71.6 °F 83% 29.76 in 10.0 mi SSW 13.8 mph 20.7 mph N/A   Clear
2:35 AM 77.0 °F - 71.6 °F 83% 29.75 in 10.0 mi SSW 16.1 mph 23.0 mph N/A   Clear
2:50 AM 77.0 °F - 69.8 °F 78% 29.75 in 10.0 mi SSW 18.4 mph - N/A   Clear
3:15 AM 77.0 °F - 69.8 °F 78% 29.73 in 10.0 mi SSW 17.3 mph - N/A   Clear
3:35 AM 78.8 °F - 68.0 °F 69% 29.73 in 10.0 mi SSW 19.6 mph 28.8 mph N/A   Clear
3:55 AM 77.0 °F - 68.0 °F 74% 29.72 in 10.0 mi SSW 18.4 mph 24.2 mph N/A   Clear
4:15 AM 77.0 °F - 68.0 °F 74% 29.72 in 10.0 mi SSW 19.6 mph 27.6 mph N/A   Clear
4:35 AM 77.0 °F - 68.0 °F 74% 29.73 in 10.0 mi SW 15.0 mph - N/A   Clear
4:55 AM 75.2 °F - 68.0 °F 78% 29.74 in 10.0 mi SW 11.5 mph 17.3 mph N/A   Clear
5:15 AM 75.2 °F - 68.0 °F 78% 29.74 in 10.0 mi SW 9.2 mph - N/A   Clear
5:35 AM 73.4 °F - 68.0 °F 83% 29.74 in - SW 8.1 mph - N/A   Clear
5:55 AM 73.4 °F - 68.0 °F 83% 29.75 in 10.0 mi WSW 6.9 mph - N/A   Clear
6:15 AM 73.4 °F - 68.0 °F 83% 29.75 in 10.0 mi SW 4.6 mph - N/A   Clear
6:35 AM 73.4 °F - 68.0 °F 83% 29.75 in 10.0 mi SSW 5.8 mph - N/A   Clear
6:55 AM 75.2 °F - 68.0 °F 78% 29.76 in 10.0 mi SW 6.9 mph - N/A   Clear
7:15 AM 75.2 °F - 68.0 °F 78% 29.75 in 10.0 mi SW 10.4 mph - N/A   Clear
7:35 AM 75.2 °F - 68.0 °F 78% 29.75 in 10.0 mi SW 9.2 mph - N/A   Clear
7:55 AM 75.2 °F - 68.0 °F 78% 29.76 in 10.0 mi SW 9.2 mph - N/A   Clear
8:15 AM 77.0 °F - 68.0 °F 74% 29.76 in 10.0 mi WSW 11.5 mph - N/A   Clear
8:35 AM 77.0 °F - 68.0 °F 74% 29.77 in 10.0 mi WSW 11.5 mph 17.3 mph N/A   Clear
8:55 AM 77.0 °F - 68.0 °F 74% 29.77 in 10.0 mi West 8.1 mph 13.8 mph N/A   Clear
9:15 AM 77.0 °F - 69.8 °F 78% 29.78 in 10.0 mi West 10.4 mph - N/A   Clear
9:35 AM 77.0 °F - 69.8 °F 78% 29.78 in 10.0 mi WNW 5.8 mph - N/A   Clear
9:55 AM 78.8 °F - 69.8 °F 74% 29.78 in 10.0 mi NW 8.1 mph - N/A   Clear
10:15 AM 78.8 °F - 69.8 °F 74% 29.78 in 10.0 mi NW 8.1 mph - N/A   Clear
10:35 AM 80.6 °F 83.9 °F 69.8 °F 70% 29.78 in 10.0 mi NNW 5.8 mph - N/A   Clear
10:55 AM 80.6 °F 83.9 °F 69.8 °F 70% 29.78 in 10.0 mi Variable 6.9 mph - N/A   Clear
11:15 AM 80.6 °F 83.9 °F 69.8 °F 70% 29.78 in 10.0 mi WNW 5.8 mph - N/A   Clear
11:35 AM 82.4 °F 87.2 °F 71.6 °F 70% 29.78 in 10.0 mi NNW 9.2 mph 15.0 mph N/A   Clear
11:55 AM 82.4 °F 87.2 °F 71.6 °F 70% 29.78 in 10.0 mi NW 4.6 mph - N/A   Clear
12:15 PM 84.2 °F 88.4 °F 69.8 °F 62% 29.78 in 10.0 mi North 6.9 mph 12.7 mph N/A   Mostly Cloudy
12:35 PM 84.2 °F 87.3 °F 68.0 °F 58% 29.78 in 10.0 mi North 8.1 mph - N/A   Scattered Clouds
12:55 PM 84.2 °F 87.3 °F 68.0 °F 58% 29.78 in 10.0 mi Variable 5.8 mph - N/A   Clear
1:15 PM 84.2 °F 87.3 °F 68.0 °F 58% 29.78 in 10.0 mi North 6.9 mph - N/A   Partly Cloudy
1:35 PM 86.0 °F 89.4 °F 68.0 °F 55% 29.78 in 10.0 mi Variable 4.6 mph - N/A   Mostly Cloudy
1:55 PM 86.0 °F 89.4 °F 68.0 °F 55% 29.78 in 10.0 mi Calm Calm 11.5 mph N/A   Mostly Cloudy
2:15 PM 86.0 °F 90.4 °F 69.8 °F 58% 29.78 in 10.0 mi North 8.1 mph - N/A   Mostly Cloudy
2:35 PM 86.0 °F 88.2 °F 66.2 °F 51% 29.79 in 10.0 mi NW 8.1 mph 13.8 mph N/A   Overcast
2:55 PM 86.0 °F 88.2 °F 66.2 °F 51% 29.78 in 10.0 mi NNW 10.4 mph - N/A   Mostly Cloudy
3:15 PM 86.0 °F 87.3 °F 64.4 °F 48% 29.78 in 10.0 mi NNW 11.5 mph - N/A   Mostly Cloudy
3:35 PM 84.2 °F 86.6 °F 66.2 °F 55% 29.79 in 10.0 mi NNW 13.8 mph - N/A   Overcast
3:55 PM 84.2 °F 86.6 °F 66.2 °F 55% 29.78 in 10.0 mi NNW 13.8 mph 19.6 mph N/A   Mostly Cloudy
4:15 PM 84.2 °F 85.6 °F 64.4 °F 51% 29.77 in 10.0 mi NNW 16.1 mph - N/A   Partly Cloudy
4:35 PM 84.2 °F 85.6 °F 64.4 °F 51% 29.77 in 10.0 mi NNW 12.7 mph - N/A   Clear
4:55 PM 84.2 °F 85.0 °F 62.6 °F 48% 29.77 in 10.0 mi North 12.7 mph - N/A   Clear
5:15 PM 84.2 °F 85.6 °F 64.4 °F 51% 29.77 in 10.0 mi North 12.7 mph - N/A   Clear
5:35 PM 84.2 °F 85.0 °F 62.6 °F 48% 29.78 in 10.0 mi North 12.7 mph - N/A   Clear
5:55 PM 84.2 °F 85.6 °F 64.4 °F 51% 29.78 in 10.0 mi North 11.5 mph 19.6 mph N/A   Scattered Clouds
6:15 PM 84.2 °F 85.0 °F 62.6 °F 48% 29.77 in 10.0 mi NNW 13.8 mph - N/A   Scattered Clouds
6:35 PM 82.4 °F 83.4 °F 62.6 °F 51% 29.78 in 10.0 mi North 8.1 mph 18.4 mph N/A   Mostly Cloudy
6:55 PM 82.4 °F 82.9 °F 60.8 °F 48% 29.78 in 10.0 mi North 10.4 mph - N/A   Mostly Cloudy
7:15 PM 80.6 °F 81.8 °F 62.6 °F 54% 29.78 in 10.0 mi North 15.0 mph - N/A   Overcast
7:55 PM 78.8 °F - 60.8 °F 54% 29.80 in 10.0 mi NNW 12.7 mph - N/A   Overcast
8:15 PM 77.0 °F - 55.4 °F 47% 29.81 in 10.0 mi North 9.2 mph 17.3 mph N/A   Overcast
8:35 PM 77.0 °F - 51.8 °F 41% 29.81 in 10.0 mi North 9.2 mph - N/A   Overcast
8:55 PM 73.4 °F - 53.6 °F 50% 29.82 in 10.0 mi NNW 8.1 mph - N/A   Scattered Clouds
9:15 PM 73.4 °F - 55.4 °F 53% 29.83 in 10.0 mi NNW 4.6 mph - N/A   Clear
9:35 PM 73.4 °F - 57.2 °F 57% 29.84 in 10.0 mi NNW 8.1 mph - N/A   Clear
9:55 PM 71.6 °F - 60.8 °F 69% 29.84 in 10.0 mi NNW 6.9 mph - N/A   Clear
10:15 PM 71.6 °F - 60.8 °F 69% 29.84 in 10.0 mi NNW 8.1 mph - N/A   Clear
10:35 PM 71.6 °F - 60.8 °F 69% 29.85 in 10.0 mi NNW 8.1 mph - N/A   Clear
10:55 PM 69.8 °F - 59.0 °F 68% 29.86 in 10.0 mi NNW 5.8 mph - N/A   Clear
11:15 PM 69.8 °F - 59.0 °F 68% 29.86 in 10.0 mi North 8.1 mph - N/A   Clear
11:35 PM 69.8 °F - 59.0 °F 68% 29.85 in 10.0 mi North 4.6 mph - N/A   Clear
11:55 PM 68.0 °F - 59.0 °F 73% 29.85 in 10.0 mi North 5.8 mph - N/A   Clear